Tracking 19245 objects as of 17-Aug-2018
HD Live streaming from Space Station
objects crossing your sky now

NOAA 16 DEB

Track NOAA 16 DEB now!
10-day predictions


NORAD ID: 41349
Int'l Code: 2000-055HS
Perigee: 792.4 km
Apogee: 858.6 km
Inclination: 98.9 °
Period: 101.3 minutes
Semi major axis: 7196 km
RCS: Unknown
Launch date: September 21, 2000
Source: United States (US)
Launch site: AIR FORCE WESTERN TEST RANGE (AFWTR)

Note: This is SATELLITE DEBRIS
aabbcc
Your satellite tracking list
Your tracking list is empty




NASA's NSSDC Master Catalog

Two Line Element Set (TLE):
1 41349U 00055HS  18228.48442962  .00000734  00000-0  34855-3 0  9993
2 41349  98.8940 319.0452 0045973 157.9631 202.3536 14.22060915134240
Source of the keplerian elements: AFSPC